Voltar ao catálogo

COSMOS 2363

GLONASS

AtivoNavegaçãoMEO
NORAD 25594·PAYLOAD·🇷🇺 Russia

Lançado Dec 30, 1998 de Baikonur Cosmodrome

Loading…

Próximas Passagens (próximas 24 horas)

TLE

AtualizadoSource: Space-Track

Época: Sep 14, 2026, 02:48 UTC

1 25594U 98077B   26257.11708360 -.00000030  00000-0  00000-0 0  9998
2 25594  64.3896  56.9585 0027424  46.6663 130.3008  2.13103645215571

Acompanhe COSMOS 2363 em tempo real com AllMySat

Download on the App Store